Regional Weather Roundup
Issued by NWS

Home | Current Version | Previous Version | Graphics & Text | Print | Product List | Glossary Off
Versions: 1 2 3 4 5 6 7 8 9 10 11 12 13 14 15 16 17 18 19 20 21 22 23 24 25 26 27 28 29 30 31 32 33 34 35 36 37 38 39 40 41 42 43 44 45 46 47 48 49 50

000
ASUS43 KDMX 251307
RWRIA

WEATHER ROUNDUP FOR IOWA
NATIONAL WEATHER SERVICE DES MOINES IA
800 AM CDT SAT APR 25 2015

NOTE: "FAIR" INDICATES FEW OR NO CLOUDS BELOW 12,000 FEET WITH NO
SIGNIFICANT WEATHER AND/OR OBSTRUCTIONS TO VISIBILITY.

* - THESE STATIONS ARE NOT NWS STATIONS...THUS NOT UNDER NWS
QUALITY CONTROL.  THEY ALSO DO NOT REPORT WEATHER SUCH
AS PRECIPITATION OR FOG.

IAZ001>003-012>014-020>022-031>034-043>046-251400-
   NORTHWEST IOWA

CITY           SKY/WX    TMP DP  RH WIND       PRES   REMARKS
CARROLL *      LGT RAIN  43  43 100 E16G22    29.62R
CHEROKEE *     CLOUDY    43  43 100 E10G20    29.67R FOG
DENISON *      LGT RAIN  45  45 100 E17G24    29.58R
LE MARS *      CLOUDY    46  43  87 NE12G21   29.67R
ORANGE CITY *  CLOUDY    43  39  87 E15G22    29.67R FOG
SHELDON *      CLOUDY    43  41  93 E21G26    29.68R
SIOUX CITY     LGT RAIN  47  42  83 E17G23    29.63R
SPENCER        CLOUDY    44  39  82 E17       29.71R HAZE
STORM LAKE *   MIX PCPN  41  41 100 E17G25    29.67R VSB 1/2
$$

IAZ055>058-069>071-079>083-090>094-251400-
   SOUTHWEST IOWA

CITY           SKY/WX    TMP DP  RH WIND       PRES   REMARKS
ATLANTIC *     CLOUDY    48  48 100 NE15      29.54R
AUDUBON *      LGT RAIN  45  41  87 NE18      29.57S
CLARINDA *     CLOUDY    54  54 100 E10G17    29.50R
COUNCIL BLFS * CLOUDY    48  48 100 NE14G22   29.53R FOG
CRESTON *      CLOUDY    48  48 100 NE20      29.52R FOG
HARLAN  *      LGT RAIN  46  46 100 NE16      29.59R
LAMONI         CLOUDY    53  50  89 E9        29.51R
RED OAK *      CLOUDY    52  52 100 NE14G21   29.50R
SHENANDOAH *   CLOUDY    54  54 100 NE16      29.48R
$$

IAZ047>049-059>061-072>074-084-251400-
   CENTRAL IOWA

CITY           SKY/WX    TMP DP  RH WIND       PRES   REMARKS
AMES           CLOUDY    43  40  89 E14G22    29.63F FOG
ANKENY *       RAIN      45  43  93 E13G18    29.62R
CHARITON *     CLOUDY    46  46 100 NE23      29.52F FOG
DES MOINES     LGT RAIN  45  42  89 NE17      29.60R FOG
GRINNELL*      RAIN      43  41  93 NE18G29   29.63F
KNOXVILLE *    CLOUDY    45  43  93 E17       29.59R FOG
MARSHALLTOWN   CLOUDY    43  39  86 E17       29.65R
PELLA *        LGT RAIN  43  43 100 E13G18    29.63R
PERRY *        LGT RAIN  45  43  93 E20G25    29.60R
$$

IAZ004>006-015-016-023>025-035-036-251400-
   NORTH CENTRAL IOWA

CITY           SKY/WX    TMP DP  RH WIND       PRES   REMARKS
ALGONA *       CLOUDY    43  39  87 E15       29.72R
CLARION *      CLOUDY    43  41  93 E21       29.69R
ESTHERVILLE    CLOUDY    41  38  89 E16       29.73R FOG
FORT DODGE *   CLOUDY    43  37  81 E18       29.68R
MASON CITY     CLOUDY    41  37  86 E16       29.73R
FOREST CITY *  CLOUDY    41  36  81 E14       29.72S
IOWA FALLS *   CLOUDY    43  37  81 E22G28    29.68R
$$

IAZ007>011-017>019-026>030-037>042-050>054-066-251400-
   NORTHEAST IOWA

CITY           SKY/WX    TMP DP  RH WIND       PRES   REMARKS
CEDAR RAPIDS   LGT RAIN  42  41  96 E20G28    29.66F FOG
CHARLES CITY * CLOUDY    41  39  93 E20       29.73R
CLINTON *      CLOUDY    43  39  87 E15       29.73F
DECORAH *      CLOUDY    41  36  81 E13G18    29.76S
DUBUQUE        CLOUDY    43  36  76 E8        29.75R
MONTICELLO *   CLOUDY    43  41  93 NE12G17   29.72S
OELWEIN *      CLOUDY    41  37  87 E20       29.72S
WATERLOO       CLOUDY    43  37  79 E17       29.71R
$$

IAZ064-065-067-068-078-251400-
   EAST CENTRAL IOWA

CITY           SKY/WX    TMP DP  RH WIND       PRES   REMARKS
DAVENPORT      LGT RAIN  43  40  89 E15       29.68F FOG
IOWA CITY      RAIN      43  41  93 NE16G22   29.66F FOG
MT. PLEASANT * RAIN      45  45 100 E16       29.60S
MUSCATINE *    LGT RAIN  45  43  93 E15       29.64F
QUAD CITIES    LGT RAIN  44  41  89 E20G26    29.67F FOG
$$

IAZ062-063-075>077-085>089-095>099-251400-
   SOUTHEAST IOWA

CITY           SKY/WX    TMP DP  RH WIND       PRES   REMARKS
BURLINGTON     CLOUDY    47  47 100 E15       29.59R
FAIRFIELD *    LGT RAIN  45  43  93 NE13G20   29.61F
FORT MADISON * RAIN      46  45  93 E12       29.61R
KEOKUK *       RAIN      50  48  93 E5        29.60R
OSKALOOSA *    LGT RAIN  41  41 100 E16G23    29.62S
CENTERVILLE *    N/A     48  48 100 NE15      29.54F
OTTUMWA        LGT RAIN  44  43  96 E16       29.60S FOG
WASHINGTON *   LGT RAIN  45  45 100 NE17      29.63R
$$

ABBREVIATIONS USED IN REMARKS
   TC - TEMPERATURES IN CELSIUS
  WCI - WIND CHILL INDEX
   HX - HEAT INDEX
  VSB - VISIBILITY
$$




USA.gov is the U.S. government's official web portal to all federal, state and local government web resources and services.